Regional Weather Roundup
Issued by NWS Kansas City/Pleasant Hill, MO

Home | Current Version | Previous Version | Graphics & Text | Print | Product List | Glossary Off
Versions: 1 2 3 4 5 6 7 8 9 10 11 12 13 14 15 16 17 18 19 20 21 22 23 24 25 26 27 28 29 30 31 32 33 34 35 36 37 38 39 40 41 42 43 44 45 46 47 48 49 50

000
ASUS43 KEAX 281510
RWREAX

WEATHER ROUNDUP FOR EASTERN KANSAS AND NORTHWEST MISSOURI
NATIONAL WEATHER SERVICE KANSAS CITY/PLEASANT HILL MO
1000 AM CDT THU JUL 28 2016

KSZ040-057-103>105-MOZ028-029-037-043-281600-
...KANSAS CITY METROPOLITAN AREA...

CITY           SKY/WX    TMP DP  RH WIND       PRES   REMARKS
K.C. INTL      PTSUNNY   80  69  69 N5        29.98F
K.C. DOWNTOWN  MOSUNNY   83  71  67 NW8       29.96F
LEES SUMMIT    MOSUNNY   81  72  74 CALM      29.97F
OLATHE - IXD   PTSUNNY   79  72  79 N9        29.99S
OLATHE - OJC   PTSUNNY   80  71  74 NW6       29.98F
LAWRENCE       PTSUNNY   82  71  69 NE7       29.98F

$$

MOZ001>008-011>017-020>025-030>033-038>040-044>046-053-054-281600-
...NORTHERN AND CENTRAL MISSOURI...

CITY           SKY/WX    TMP DP  RH WIND       PRES   REMARKS
ST. JOSEPH     MOSUNNY   78  71  79 N6        29.98F
MOSBY          CLOUDY    77  70  78 NW5       29.97S
WHITEMAN AFB   NOT AVBL
CLINTON        SUNNY     82  75  78 N5        29.95F
SEDALIA        SUNNY     84  74  71 NW5       29.96F HX  91
WARSAW         NOT AVBL
CHILLICOTHE      N/A     84  72  67 CALM      29.96F
KIRKSVILLE     SUNNY     82  68  62 N10       29.95F

$$

MOZ041-047>049-056>058-063>065-088>090-097-281600-
...EASTERN AND SOUTHERN MISSOURI...

CITY           SKY/WX    TMP DP  RH WIND       PRES   REMARKS
ST. LOUIS INTL MOSUNNY   86  73  65 NW6       29.91S HX  93
SPIRIT OF STL  MOSUNNY   83  74  74 NW7       29.90F
COLUMBIA       SUNNY     83  73  72 N7        29.94F
JEFFERSON CITY SUNNY     82  74  76 NW5       29.92F
ROLLA          SUNNY     81  73  76 NW8       29.95S
OSAGE BEACH    SUNNY     83  74  74 NW6       29.96F
SPRINGFIELD    MOSUNNY   82  73  74 W5        29.97F
BRANSON        MOSUNNY   79  73  83 NW6       30.00F
JOPLIN         SUNNY     84  76  76 VRB6      29.98F HX  93
WEST PLAINS    SUNNY     79  72  79 W5        29.99S

$$

IAZ060-094-KSZ022-034>040-054-083-096-NEZ052-066-093-281600-
...KANSAS...SOUTHEAST NEBRASKA AND IOWA...

CITY           SKY/WX    TMP DP  RH WIND       PRES   REMARKS
TOPEKA           N/A     82  71  69 NE8       29.99F
MANHATTAN      MOSUNNY   81  71  71 VRB3      30.00F
EMPORIA        MOSUNNY   83  71  67 N8        29.99F
CHANUTE        TSTM      74  65  73 CALM      30.00R VSB 1/4
WICHITA        CLOUDY    85  69  58 NE10      29.97F
OMAHA          MOSUNNY   77  68  73 N9        30.03S
LINCOLN        SUNNY     78  68  71 NE7       30.05R
FALLS CITY     SUNNY     78  70  76 N7        30.00S
LAMONI         MOSUNNY   76  68  76 N10       29.99S
DES MOINES     MOSUNNY   77  66  68 N14       29.98S

$$




USA.gov is the U.S. government's official web portal to all federal, state and local government web resources and services.